Regional Weather Roundup
Issued by NWS Little Rock, AR

Home | Current Version | Previous Version | Graphics & Text | Print | Product List | Glossary On
Versions: 1 2 3 4 5 6 7 8 9 10 11 12 13 14 15 16 17 18 19 20 21 22 23 24 25 26 27 28 29 30 31 32 33 34 35 36 37 38 39 40 41 42 43 44 45 46 47 48 49 50
000
ASUS44 KLZK 062205
RWRLZK

WEATHER ROUNDUP FOR ARKANSAS
NATIONAL WEATHER SERVICE LITTLE ROCK AR
400 PM CST SAT FEB 06 2016

NOTE: "FAIR" INDICATES FEW OR NO CLOUDS BELOW 12,000 FEET WITH NO
SIGNIFICANT WEATHER AND/OR OBSTRUCTIONS TO VISIBILITY.

ARZ001-003-010-029-062300-
NORTHWEST ARKANSAS

CITY           SKY/WX    TMP DP  RH WIND       PRES   REMARKS
FAYETTEVILLE   SUNNY     52  25  35 SW12      30.27S
FORT SMITH     SUNNY     56  17  21 SW6       30.30S
HARRISON       SUNNY     52  21  29 VRB3      30.25F
BENTONVILLE    MOSUNNY   52  25  35 SW7       30.27S
ROGERS         MOSUNNY   53  26  35 W13G18    30.26F
SILOAM SPGS    PTSUNNY   54  27  35 W12       30.27F
HIGHFILL       SUNNY     53  28  38 SW7       30.26S
SPRINGDALE     SUNNY     52  25  35 W8G15     30.28S
$$

ARZ004-005-016-062300-
NORTH CENTRAL ARKANSAS

CITY           SKY/WX    TMP DP  RH WIND       PRES   REMARKS
BATESVILLE     SUNNY     55  14  19 NW5       30.29S
FLIPPIN        SUNNY     55  18  22 SW3       30.25S
MTN HOME       SUNNY     53  17  24 SW3       30.25F
$$

ARZ040-041-062300-
WEST CENTRAL ARKANSAS

CITY           SKY/WX    TMP DP  RH WIND       PRES   REMARKS
MENA           SUNNY     55  19  24 E3        30.28S
MOUNT IDA      SUNNY     57  17  21 VRB6      30.26S
$$

ARZ009-017-025-026-028-062300-
NORTHEAST ARKANSAS

CITY           SKY/WX    TMP DP  RH WIND       PRES   REMARKS
CORNING        FAIR      54  19  26 S13       30.29S
JONESBORO      SUNNY     51  24  34 S8        30.30S
NEWPORT        SUNNY     55  16  21 VRB3      30.31F
WALNUT RIDGE   SUNNY     54  19  26 S9        30.30S
BLYTHEVILLE    SUNNY     57  24  28 SW6       30.30F
$$

ARZ022-023-033-042-044-062300-
CENTRAL ARKANSAS

CITY           SKY/WX    TMP DP  RH WIND       PRES   REMARKS
LITTLE ROCK    MOSUNNY   56  18  22 VRB3      30.30S
N LITTLE ROCK  MOSUNNY   54  21  28 S3        30.30S
JACKSONVILLE   SUNNY     55  19  24 S5        30.29S
SEARCY         SUNNY     55  17  22 CALM      30.32R
HOT SPRINGS    SUNNY     55  18  23 VRB3      30.29S
RUSSELLVILLE   SUNNY     55  16  21 CALM      30.29S
CLINTON        FAIR      55  16  21 CALM      30.29S HAZE
$$

ARZ036-062300-
EAST ARKANSAS

CITY           SKY/WX    TMP DP  RH WIND       PRES   REMARKS
WEST MEMPHIS   SUNNY     52  22  30 CALM      30.31S
$$

ARZ050-053-066-070-073-062300-
SOUTHWEST ARKANSAS

CITY           SKY/WX    TMP DP  RH WIND       PRES   REMARKS
ARKADELPHIA    FAIR      58  22  25 CALM      30.31R
CAMDEN         SUNNY     59  18  20 SE3       30.30S
TEXARKANA      SUNNY     56  20  24 CALM      30.31S
EL DORADO      SUNNY     55  20  25 NW5       30.29S
DE QUEEN       SUNNY     59  22  24 CALM      30.28S
$$

ARZ056-057-069-062300-
SOUTHEAST ARKANSAS

CITY           SKY/WX    TMP DP  RH WIND       PRES   REMARKS
PINE BLUFF     SUNNY     55  22  27 VRB7      30.30S
STUTTGART      SUNNY     54  19  26 CALM      30.32S
MONTICELLO     SUNNY     57  21  24 E6        30.29R

$$





USA.gov is the U.S. government's official web portal to all federal, state and local government web resources and services.